Weather History for Altus, OK

Change the Weather History Date:

Monday, March 18, 2013

  Actual Average (KLTS) Record (KLTS)
Temperature  
Mean Temperature 52 °F -  
Max Temperature 62 °F 63 °F 84 °F (2004)
Min Temperature 41 °F 39 °F 39 °F (2005)
Degree Days  
Heating Degree Days 14    
Growing Degree Days 2 (Base 50)    
Moisture  
Dew Point 35 °F    
Average Humidity 58    
Maximum Humidity 88    
Minimum Humidity 27    
Precipitation  
Precipitation 0.00 in - - ()
Sea Level Pressure  
Sea Level Pressure 29.91 in    
Wind  
Wind Speed 11 mph (NE)    
Max Wind Speed 26 mph    
Max Gust Speed 30 mph    
Visibility 9 miles    
Events      
Averages and records for this station are not official NWS values.
T = Trace of Precipitation, MM = Missing Value Source: NWS Daily Summary

Daily Weather History Graph

Daily Weather History Graph

Search for Another Location

Airport:

Trip Planner

Search our weather history database for the weather conditions in past years. The results will help you decide how hot, cold, wet, or windy it might be!

Date:

Astronomy

Mar. 18, 2013 Rise Set
Actual Time 7:43 AM CDT 7:47 PM CDT
Civil Twilight 7:18 AM CDT 8:12 PM CDT
Nautical Twilight 6:48 AM CDT 8:42 PM CDT
Astronomical Twilight 6:19 AM CDT 9:11 PM CDT
Moon 11:57 AM CDT 1:35 AM CDT
Length of Visible Light 12h 54m
Length of Day
12h 04m
Waxing Crescent, 41% of the Moon is Illuminated
Mar 18
Waxing Crescent
Mar 19
First Quarter
Mar 27
Full
Apr 2
Last Quarter
Apr 10
New

Hourly Weather History & Observations

Time (CDT) Temp. Windchill Dew Point Humidity Pressure Visibility Wind Dir Wind Speed Gust Speed Precip Events Conditions
12:15 AM 48.2 °F - 40.1 °F 74% 29.65 in 10.0 mi ESE 8.1 mph - N/A   Clear
12:35 AM 47.5 °F - 40.1 °F 76% 29.64 in 10.0 mi ESE 9.2 mph - N/A   Clear
12:55 AM 46.6 °F - 39.9 °F 78% 29.64 in 10.0 mi East 9.2 mph - N/A   Clear
1:15 AM 45.5 °F 39.9 °F 40.3 °F 82% 29.64 in 7.0 mi East 11.5 mph - N/A   Clear
1:35 AM 46.4 °F 41.9 °F 40.3 °F 79% 29.64 in 10.0 mi ESE 9.2 mph - N/A   Clear
1:55 AM 47.1 °F - 40.6 °F 78% 29.63 in 10.0 mi ESE 9.2 mph - N/A   Clear
2:15 AM 47.7 °F - 40.6 °F 77% 29.63 in 10.0 mi East 9.2 mph - N/A   Clear
2:35 AM 47.7 °F - 40.5 °F 76% 29.65 in 10.0 mi East 4.6 mph - N/A   Clear
2:55 AM 47.3 °F - 40.1 °F 76% 29.67 in 10.0 mi Calm Calm - N/A   Clear
3:15 AM 45.9 °F 42.3 °F 39.0 °F 77% 29.66 in 10.0 mi SE 6.9 mph - N/A   Clear
3:35 AM 45.1 °F 42.0 °F 39.2 °F 80% 29.66 in 10.0 mi East 5.8 mph - N/A   Clear
3:55 AM 46.6 °F - 40.3 °F 79% 29.70 in 10.0 mi NE 11.5 mph 19.6 mph N/A   Clear
4:15 AM 45.7 °F 41.5 °F 39.4 °F 79% 29.72 in 10.0 mi North 8.1 mph - N/A   Clear
4:35 AM 44.6 °F 40.2 °F 38.5 °F 79% 29.71 in 10.0 mi NNE 8.1 mph - N/A   Clear
4:55 AM 43.3 °F 37.7 °F 38.1 °F 82% 29.72 in 7.0 mi NNE 10.4 mph - N/A   Clear
5:15 AM 42.4 °F 35.3 °F 37.6 °F 83% 29.76 in 7.0 mi NNE 13.8 mph - N/A   Clear
5:35 AM 41.7 °F 32.1 °F 37.4 °F 85% 29.80 in 5.0 mi NNE 23.0 mph 28.8 mph N/A   Haze
5:55 AM 41.7 °F 31.9 °F 38.1 °F 87% 29.81 in 4.0 mi NNE 24.2 mph 29.9 mph N/A   Overcast
6:15 AM 41.9 °F 32.8 °F 38.5 °F 88% 29.83 in 4.0 mi NNE 20.7 mph - N/A   Overcast
6:35 AM 41.9 °F 31.7 °F 38.5 °F 88% 29.84 in 4.0 mi North 26.5 mph - N/A   Overcast
6:55 AM 41.9 °F 32.8 °F 38.3 °F 87% 29.86 in 4.0 mi North 20.7 mph - N/A   Overcast
7:15 AM 42.1 °F 32.6 °F 38.3 °F 86% 29.89 in 4.0 mi North 23.0 mph 28.8 mph N/A   Overcast
7:35 AM 42.4 °F 34.7 °F 38.3 °F 85% 29.91 in 5.0 mi North 16.1 mph 26.5 mph N/A   Haze
7:55 AM 42.1 °F 33.9 °F 37.8 °F 85% 29.92 in 5.0 mi North 17.3 mph 26.5 mph N/A   Overcast
8:15 AM 41.9 °F 36.3 °F 37.8 °F 85% 29.93 in 5.0 mi North 9.2 mph - N/A   Mostly Cloudy
8:35 AM 42.6 °F 36.8 °F 38.3 °F 85% 29.95 in 5.0 mi North 10.4 mph - N/A   Haze
8:55 AM 43.9 °F 38.8 °F 38.7 °F 82% 29.97 in 5.0 mi North 9.2 mph - N/A   Haze
9:15 AM 45.5 °F 39.2 °F 38.8 °F 78% 29.96 in 7.0 mi NNE 13.8 mph - N/A   Clear
9:35 AM 47.1 °F - 39.0 °F 73% 29.97 in 10.0 mi North 17.3 mph - N/A   Clear
9:55 AM 48.2 °F - 38.5 °F 69% 29.98 in 10.0 mi North 17.3 mph 23.0 mph N/A   Clear
10:15 AM 49.5 °F - 37.8 °F 64% 29.98 in 10.0 mi NNE 15.0 mph 21.9 mph N/A   Clear
10:35 AM 51.1 °F - 37.9 °F 61% 29.99 in 10.0 mi NNE 18.4 mph - N/A   Clear
10:55 AM 52.5 °F - 35.8 °F 53% 30.00 in 10.0 mi NNE 19.6 mph 27.6 mph N/A   Clear
11:15 AM 54.0 °F - 36.1 °F 51% 30.02 in 10.0 mi NNE 15.0 mph - N/A   Clear
11:35 AM 54.9 °F - 35.4 °F 48% 30.03 in 10.0 mi NNE 17.3 mph - N/A   Clear
11:55 AM 55.4 °F - 34.9 °F 46% 30.01 in 10.0 mi NNE 17.3 mph 24.2 mph N/A   Clear
12:15 PM 57.0 °F - 35.1 °F 44% 30.02 in 10.0 mi NNE 13.8 mph 21.9 mph N/A   Clear
12:35 PM 57.6 °F - 32.4 °F 39% 30.01 in 10.0 mi NNE 18.4 mph 28.8 mph N/A   Clear
12:55 PM 57.9 °F - 33.4 °F 40% 30.00 in 10.0 mi NNE 13.8 mph 25.3 mph N/A   Clear
1:15 PM 58.6 °F - 32.9 °F 38% 30.01 in 10.0 mi NNE 15.0 mph 20.7 mph N/A   Clear
1:35 PM 60.1 °F - 31.8 °F 34% 30.01 in 10.0 mi North 13.8 mph 17.3 mph N/A   Clear
1:55 PM 60.1 °F - 29.5 °F 31% 30.02 in 10.0 mi North 12.7 mph 18.4 mph N/A   Clear
2:15 PM 61.2 °F - 28.2 °F 29% 30.01 in 10.0 mi NNE 13.8 mph 20.7 mph N/A   Clear
2:35 PM 61.0 °F - 29.5 °F 30% 29.99 in 10.0 mi NNE 12.7 mph 18.4 mph N/A   Clear
2:55 PM 61.5 °F - 29.3 °F 30% 29.99 in 10.0 mi NE 12.7 mph 17.3 mph N/A   Clear
3:15 PM 61.9 °F - 30.2 °F 30% 29.98 in 10.0 mi NNE 10.4 mph - N/A   Clear
3:35 PM 61.9 °F - 29.5 °F 29% 29.98 in 10.0 mi NNE 12.7 mph - N/A   Clear
3:55 PM 61.7 °F - 29.1 °F 29% 29.98 in 10.0 mi East 8.1 mph - N/A   Clear
4:15 PM 61.3 °F - 27.0 °F 27% 29.99 in 10.0 mi Calm Calm - N/A   Clear
4:35 PM 62.2 °F - 28.6 °F 28% 29.99 in 10.0 mi North 5.8 mph - N/A   Clear
4:55 PM 62.2 °F - 28.0 °F 27% 29.99 in 10.0 mi NE 3.5 mph - N/A   Clear
5:15 PM 62.8 °F - 30.4 °F 30% 29.99 in 10.0 mi NNE 5.8 mph - N/A   Clear
5:35 PM 62.1 °F - 28.0 °F 28% 29.99 in 10.0 mi ENE 4.6 mph - N/A   Clear
5:55 PM 61.9 °F - 28.2 °F 28% 29.99 in 10.0 mi NNE 4.6 mph - N/A   Clear
6:15 PM 61.9 °F - 28.4 °F 28% 29.99 in 10.0 mi NNE 5.8 mph - N/A   Clear
6:35 PM 61.7 °F - 27.5 °F 27% 29.99 in 10.0 mi Calm Calm - N/A   Clear
6:55 PM 60.6 °F - 29.8 °F 31% 29.99 in 10.0 mi East 6.9 mph - N/A   Clear
7:15 PM 59.0 °F - 31.3 °F 35% 30.00 in 10.0 mi East 5.8 mph - N/A   Clear
7:35 PM 56.1 °F - 32.4 °F 41% 30.00 in 10.0 mi East 6.9 mph - N/A   Clear
7:55 PM 53.8 °F - 32.9 °F 45% 30.00 in 10.0 mi East 5.8 mph - N/A   Clear
8:15 PM 51.8 °F - 32.4 °F 48% 30.00 in 10.0 mi East 6.9 mph - N/A   Clear
8:35 PM 50.5 °F - 31.8 °F 49% 30.01 in 10.0 mi East 8.1 mph - N/A   Clear
8:55 PM 50.2 °F - 30.9 °F 48% 30.00 in 10.0 mi East 8.1 mph - N/A   Clear
9:15 PM 49.6 °F - 30.9 °F 49% 29.99 in 10.0 mi East 8.1 mph - N/A   Clear
9:35 PM 48.7 °F - 30.6 °F 50% 29.99 in 10.0 mi East 9.2 mph - N/A   Clear
9:55 PM 47.3 °F - 30.7 °F 53% 29.99 in 10.0 mi East 9.2 mph - N/A   Clear
10:15 PM 46.9 °F - 30.9 °F 54% 30.00 in 10.0 mi East 9.2 mph - N/A   Clear
10:55 PM 46.8 °F - 30.0 °F 52% 30.01 in 10.0 mi East 10.4 mph - N/A   Clear
11:15 PM 44.8 °F 40.4 °F 30.2 °F 57% 30.01 in 10.0 mi East 8.1 mph - N/A   Clear
11:35 PM 44.1 °F 39.0 °F 29.7 °F 57% 30.00 in 10.0 mi East 9.2 mph - N/A   Clear
11:55 PM 44.1 °F 40.1 °F 29.7 °F 57% 30.00 in 10.0 mi East 6.9 mph - N/A   Clear